Time,TemperatureF,DewpointF,PressureIn,WindDirection,WindDirectionDegrees,WindSpeedMPH,WindSpeedGustMPH,Humidity,HourlyPrecipIn,Conditions,Clouds,dailyrainin,SoftwareType,DateUTC
2013-05-01 00:02:00,25.0,15.0,-100.00,West,280,6.0,7.0,66,-99.99,,,-99.99,,2013-05-01 06:02:00,
2013-05-01 00:12:00,25.0,15.0,-100.00,West,280,6.0,7.0,66,-99.99,,,-99.99,,2013-05-01 06:12:00,
2013-05-01 00:22:00,25.0,15.0,-100.00,West,275,7.0,7.0,67,-99.99,,,-99.99,,2013-05-01 06:22:00,
2013-05-01 00:32:00,24.0,15.0,-100.00,WSW,245,9.0,10.0,68,-99.99,,,-99.99,,2013-05-01 06:32:00,
2013-05-01 00:42:00,24.0,15.0,-100.00,WSW,245,9.0,10.0,68,-99.99,,,-99.99,,2013-05-01 06:42:00,
2013-05-01 00:52:00,24.0,15.0,-100.00,WSW,240,6.0,11.0,69,-99.99,,,-99.99,,2013-05-01 06:52:00,
2013-05-01 01:01:00,23.0,15.0,-100.00,WSW,250,7.0,7.0,71,-99.99,,,-99.99,,2013-05-01 07:01:00,
2013-05-01 01:11:00,23.0,15.0,-100.00,WSW,250,7.0,7.0,71,-99.99,,,-99.99,,2013-05-01 07:11:00,
2013-05-01 01:21:00,23.0,16.0,-100.00,West,260,7.0,8.0,72,-99.99,,,-99.99,,2013-05-01 07:21:00,
2013-05-01 01:32:00,23.0,16.0,-100.00,West,280,6.0,7.0,72,-99.99,,,-99.99,,2013-05-01 07:32:00,
2013-05-01 01:42:00,23.0,16.0,-100.00,West,280,6.0,7.0,72,-99.99,,,-99.99,,2013-05-01 07:42:00,
2013-05-01 01:52:00,22.0,15.0,-100.00,WNW,285,7.0,8.0,72,-99.99,,,-99.99,,2013-05-01 07:52:00,
2013-05-01 02:02:00,23.0,16.0,-100.00,WNW,290,9.0,9.0,72,-99.99,,,-99.99,,2013-05-01 08:02:00,
2013-05-01 02:11:00,23.0,16.0,-100.00,WNW,290,9.0,9.0,72,-99.99,,,-99.99,,2013-05-01 08:11:00,
2013-05-01 02:22:00,24.0,16.0,-100.00,WNW,290,9.0,11.0,72,-99.99,,,-99.99,,2013-05-01 08:22:00,
2013-05-01 02:32:00,23.0,16.0,-100.00,WNW,290,9.0,9.0,73,-99.99,,,-99.99,,2013-05-01 08:32:00,
2013-05-01 02:42:00,23.0,16.0,-100.00,WNW,290,9.0,9.0,73,-99.99,,,-99.99,,2013-05-01 08:42:00,
2013-05-01 02:53:00,23.0,15.0,-100.00,WNW,285,9.0,10.0,73,-99.99,,,-99.99,,2013-05-01 08:53:00,
2013-05-01 03:01:00,21.0,15.0,-100.00,WNW,285,9.0,9.0,74,-99.99,,,-99.99,,2013-05-01 09:01:00,
2013-05-01 03:12:00,21.0,15.0,-100.00,WNW,285,9.0,9.0,74,-99.99,,,-99.99,,2013-05-01 09:12:00,
2013-05-01 03:21:00,22.0,15.0,-100.00,West,275,7.0,9.0,74,-99.99,,,-99.99,,2013-05-01 09:21:00,
2013-05-01 03:33:00,22.0,15.0,-100.00,West,280,6.0,7.0,74,-99.99,,,-99.99,,2013-05-01 09:33:00,
2013-05-01 03:42:00,22.0,15.0,-100.00,West,280,6.0,7.0,74,-99.99,,,-99.99,,2013-05-01 09:42:00,
2013-05-01 03:52:00,22.0,16.0,-100.00,WNW,285,7.0,8.0,74,-99.99,,,-99.99,,2013-05-01 09:52:00,
2013-05-01 04:03:00,21.0,15.0,-100.00,WNW,285,7.0,9.0,75,-99.99,,,-99.99,,2013-05-01 10:03:00,
2013-05-01 04:12:00,21.0,15.0,-100.00,WNW,285,7.0,9.0,75,-99.99,,,-99.99,,2013-05-01 10:12:00,
2013-05-01 04:22:00,21.0,15.0,-100.00,WNW,290,9.0,9.0,75,-99.99,,,-99.99,,2013-05-01 10:22:00,
2013-05-01 04:33:00,20.0,14.0,-100.00,WNW,285,8.0,9.0,76,-99.99,,,-99.99,,2013-05-01 10:33:00,
2013-05-01 04:42:00,20.0,14.0,-100.00,WNW,285,8.0,9.0,76,-99.99,,,-99.99,,2013-05-01 10:42:00,
2013-05-01 04:53:00,21.0,15.0,-100.00,WNW,285,9.0,9.0,76,-99.99,,,-99.99,,2013-05-01 10:53:00,
2013-05-01 05:02:00,22.0,16.0,-100.00,WNW,300,8.0,10.0,74,-99.99,,,-99.99,,2013-05-01 11:02:00,
2013-05-01 05:11:00,22.0,16.0,-100.00,WNW,300,8.0,10.0,74,-99.99,,,-99.99,,2013-05-01 11:11:00,
2013-05-01 05:22:00,22.0,15.0,-100.00,WNW,295,7.0,9.0,74,-99.99,,,-99.99,,2013-05-01 11:22:00,
2013-05-01 05:32:00,21.0,14.0,-100.00,WNW,285,4.0,5.0,75,-99.99,,,-99.99,,2013-05-01 11:32:00,
2013-05-01 05:42:00,21.0,14.0,-100.00,WNW,285,4.0,5.0,75,-99.99,,,-99.99,,2013-05-01 11:42:00,
2013-05-01 05:51:00,20.0,13.0,-100.00,WNW,285,2.0,4.0,76,-99.99,,,-99.99,,2013-05-01 11:51:00,
2013-05-01 06:01:00,20.0,14.0,-100.00,WNW,295,4.0,5.0,77,-99.99,,,-99.99,,2013-05-01 12:01:00,
2013-05-01 06:11:00,20.0,14.0,-100.00,WNW,295,4.0,5.0,77,-99.99,,,-99.99,,2013-05-01 12:11:00,
2013-05-01 06:21:00,21.0,15.0,-100.00,WNW,285,6.0,6.0,77,-99.99,,,-99.99,,2013-05-01 12:21:00,
2013-05-01 06:32:00,22.0,17.0,-100.00,WNW,295,7.0,9.0,77,-99.99,,,-99.99,,2013-05-01 12:32:00,
2013-05-01 06:41:00,22.0,17.0,-100.00,WNW,295,7.0,9.0,77,-99.99,,,-99.99,,2013-05-01 12:41:00,
2013-05-01 06:52:00,24.0,17.0,-100.00,NW,305,9.0,11.0,76,-99.99,,,-99.99,,2013-05-01 12:52:00,
2013-05-01 07:01:00,26.0,19.0,-100.00,WNW,300,7.0,10.0,76,-99.99,,,-99.99,,2013-05-01 13:01:00,
2013-05-01 07:11:00,26.0,19.0,-100.00,WNW,300,7.0,10.0,76,-99.99,,,-99.99,,2013-05-01 13:11:00,
2013-05-01 07:21:00,26.0,19.0,-100.00,WNW,300,9.0,10.0,76,-99.99,,,-99.99,,2013-05-01 13:21:00,
2013-05-01 07:32:00,27.0,20.0,-100.00,WNW,295,9.0,12.0,76,-99.99,,,-99.99,,2013-05-01 13:32:00,
2013-05-01 07:42:00,27.0,20.0,-100.00,WNW,295,9.0,12.0,76,-99.99,,,-99.99,,2013-05-01 13:42:00,
2013-05-01 07:52:00,27.0,21.0,-100.00,WNW,290,11.0,14.0,76,-99.99,,,-99.99,,2013-05-01 13:52:00,
2013-05-01 08:02:00,29.0,23.0,-100.00,NW,305,11.0,17.0,75,-99.99,,,-99.99,,2013-05-01 14:02:00,
2013-05-01 08:11:00,29.0,23.0,-100.00,NW,305,11.0,17.0,75,-99.99,,,-99.99,,2013-05-01 14:11:00,
2013-05-01 08:22:00,30.0,23.0,-100.00,NW,310,14.0,19.0,74,-99.99,,,-99.99,,2013-05-01 14:22:00,
2013-05-01 08:32:00,31.0,23.0,-100.00,NW,310,15.0,19.0,72,-99.99,,,-99.99,,2013-05-01 14:32:00,
2013-05-01 08:42:00,31.0,23.0,-100.00,NW,310,15.0,19.0,72,-99.99,,,-99.99,,2013-05-01 14:42:00,
2013-05-01 08:51:00,31.0,23.0,-100.00,NW,320,14.0,21.0,70,-99.99,,,-99.99,,2013-05-01 14:51:00,
2013-05-01 09:01:00,33.0,23.0,-100.00,NW,315,12.0,17.0,67,-99.99,,,-99.99,,2013-05-01 15:01:00,
2013-05-01 09:11:00,33.0,23.0,-100.00,NW,315,12.0,17.0,67,-99.99,,,-99.99,,2013-05-01 15:11:00,
2013-05-01 09:21:00,33.0,23.0,-100.00,NW,320,15.0,18.0,64,-99.99,,,-99.99,,2013-05-01 15:21:00,
2013-05-01 09:33:00,34.0,21.0,-100.00,NNW,340,13.0,22.0,59,-99.99,,,-99.99,,2013-05-01 15:33:00,
2013-05-01 09:43:00,34.0,21.0,-100.00,NNW,340,13.0,22.0,59,-99.99,,,-99.99,,2013-05-01 15:43:00,
2013-05-01 09:53:00,34.0,20.0,-100.00,NW,320,17.0,26.0,56,-99.99,,,-99.99,,2013-05-01 15:53:00,
2013-05-01 10:03:00,35.0,19.0,-100.00,NW,315,17.0,24.0,51,-99.99,,,-99.99,,2013-05-01 16:03:00,
2013-05-01 10:12:00,35.0,19.0,-100.00,NW,315,17.0,24.0,51,-99.99,,,-99.99,,2013-05-01 16:12:00,
2013-05-01 10:22:00,36.0,19.0,-100.00,NNW,335,16.0,23.0,50,-99.99,,,-99.99,,2013-05-01 16:22:00,
2013-05-01 10:32:00,37.0,18.0,-100.00,NW,325,20.0,26.0,45,-99.99,,,-99.99,,2013-05-01 16:32:00,
2013-05-01 10:42:00,37.0,18.0,-100.00,NW,325,20.0,26.0,45,-99.99,,,-99.99,,2013-05-01 16:42:00,
2013-05-01 10:53:00,38.0,18.0,-100.00,NW,305,17.0,24.0,43,-99.99,,,-99.99,,2013-05-01 16:53:00,
2013-05-01 11:02:00,38.0,17.0,-100.00,WNW,295,15.0,21.0,41,-99.99,,,-99.99,,2013-05-01 17:02:00,
2013-05-01 11:12:00,38.0,17.0,-100.00,WNW,295,15.0,21.0,41,-99.99,,,-99.99,,2013-05-01 17:12:00,
2013-05-01 11:22:00,39.0,16.0,-100.00,NNW,330,13.0,22.0,39,-99.99,,,-99.99,,2013-05-01 17:22:00,
2013-05-01 11:32:00,39.0,17.0,-100.00,NNW,330,11.0,19.0,38,-99.99,,,-99.99,,2013-05-01 17:32:00,
2013-05-01 11:42:00,39.0,17.0,-100.00,NNW,330,11.0,19.0,38,-99.99,,,-99.99,,2013-05-01 17:42:00,
2013-05-01 11:52:00,39.0,16.0,-100.00,WNW,300,9.0,20.0,39,-99.99,,,-99.99,,2013-05-01 17:52:00,
2013-05-01 12:01:00,41.0,16.0,-100.00,NW,315,12.0,19.0,35,-99.99,,,-99.99,,2013-05-01 18:01:00,
2013-05-01 12:11:00,41.0,16.0,-100.00,NW,315,12.0,19.0,35,-99.99,,,-99.99,,2013-05-01 18:11:00,
2013-05-01 12:22:00,41.0,14.0,-100.00,NW,315,14.0,20.0,33,-99.99,,,-99.99,,2013-05-01 18:22:00,
2013-05-01 12:32:00,42.0,16.0,-100.00,NW,310,9.0,20.0,33,-99.99,,,-99.99,,2013-05-01 18:32:00,
2013-05-01 12:42:00,42.0,16.0,-100.00,NW,310,9.0,20.0,33,-99.99,,,-99.99,,2013-05-01 18:42:00,
2013-05-01 12:52:00,42.0,14.0,-100.00,WNW,300,15.0,20.0,32,-99.99,,,-99.99,,2013-05-01 18:52:00,
2013-05-01 13:02:00,43.0,15.0,-100.00,NNW,330,12.0,18.0,31,-99.99,,,-99.99,,2013-05-01 19:02:00,
2013-05-01 13:11:00,43.0,15.0,-100.00,NNW,330,12.0,18.0,31,-99.99,,,-99.99,,2013-05-01 19:11:00,
2013-05-01 13:22:00,44.0,16.0,-100.00,West,265,14.0,20.0,31,-99.99,,,-99.99,,2013-05-01 19:22:00,
2013-05-01 13:32:00,44.0,14.0,-100.00,WNW,295,12.0,22.0,29,-99.99,,,-99.99,,2013-05-01 19:32:00,
2013-05-01 13:43:00,44.0,14.0,-100.00,WNW,295,12.0,22.0,29,-99.99,,,-99.99,,2013-05-01 19:43:00,
2013-05-01 13:52:00,45.0,14.0,-100.00,NW,325,16.0,24.0,28,-99.99,,,-99.99,,2013-05-01 19:52:00,
2013-05-01 14:02:00,45.0,14.0,-100.00,WNW,295,15.0,21.0,28,-99.99,,,-99.99,,2013-05-01 20:02:00,
2013-05-01 14:11:00,45.0,14.0,-100.00,WNW,295,15.0,21.0,28,-99.99,,,-99.99,,2013-05-01 20:11:00,
2013-05-01 14:21:00,45.0,14.0,-100.00,West,270,12.0,19.0,28,-99.99,,,-99.99,,2013-05-01 20:21:00,
2013-05-01 14:32:00,46.0,13.0,-100.00,NW,310,16.0,29.0,25,-99.99,,,-99.99,,2013-05-01 20:32:00,
2013-05-01 14:42:00,46.0,13.0,-100.00,NW,310,16.0,29.0,25,-99.99,,,-99.99,,2013-05-01 20:42:00,
2013-05-01 14:52:00,46.0,11.0,-100.00,NW,310,16.0,24.0,23,-99.99,,,-99.99,,2013-05-01 20:52:00,
2013-05-01 15:01:00,45.0,11.0,-100.00,NW,315,13.0,19.0,24,-99.99,,,-99.99,,2013-05-01 21:01:00,
2013-05-01 15:11:00,45.0,11.0,-100.00,NW,315,13.0,19.0,24,-99.99,,,-99.99,,2013-05-01 21:11:00,
2013-05-01 15:22:00,46.0,11.0,-100.00,NW,305,11.0,21.0,23,-99.99,,,-99.99,,2013-05-01 21:22:00,
2013-05-01 15:32:00,46.0,10.0,-100.00,WNW,295,12.0,21.0,22,-99.99,,,-99.99,,2013-05-01 21:32:00,
2013-05-01 15:43:00,46.0,10.0,-100.00,WNW,295,12.0,21.0,22,-99.99,,,-99.99,,2013-05-01 21:43:00,
2013-05-01 15:53:00,46.0,9.0,-100.00,North,0,6.0,21.0,21,-99.99,,,-99.99,,2013-05-01 21:53:00,
2013-05-01 16:03:00,47.0,10.0,-100.00,NW,315,15.0,22.0,21,-99.99,,,-99.99,,2013-05-01 22:03:00,
2013-05-01 16:12:00,47.0,10.0,-100.00,NW,315,15.0,22.0,21,-99.99,,,-99.99,,2013-05-01 22:12:00,
2013-05-01 16:23:00,46.0,9.0,-100.00,NW,320,11.0,21.0,21,-99.99,,,-99.99,,2013-05-01 22:23:00,
2013-05-01 16:33:00,46.0,8.0,-100.00,NW,315,13.0,22.0,20,-99.99,,,-99.99,,2013-05-01 22:33:00,
2013-05-01 16:42:00,46.0,8.0,-100.00,NW,315,13.0,22.0,20,-99.99,,,-99.99,,2013-05-01 22:42:00,
2013-05-01 16:52:00,47.0,8.0,-100.00,NW,315,11.0,23.0,20,-99.99,,,-99.99,,2013-05-01 22:52:00,
2013-05-01 17:02:00,47.0,8.0,-100.00,NW,305,19.0,22.0,20,-99.99,,,-99.99,,2013-05-01 23:02:00,
2013-05-01 17:12:00,47.0,8.0,-100.00,NW,305,19.0,22.0,20,-99.99,,,-99.99,,2013-05-01 23:12:00,
2013-05-01 17:21:00,48.0,8.0,-100.00,NW,320,17.0,22.0,19,-99.99,,,-99.99,,2013-05-01 23:21:00,
2013-05-01 17:32:00,47.0,8.0,-100.00,NNW,340,9.0,23.0,19,-99.99,,,-99.99,,2013-05-01 23:32:00,
2013-05-01 17:42:00,47.0,8.0,-100.00,NNW,340,9.0,23.0,19,-99.99,,,-99.99,,2013-05-01 23:42:00,
2013-05-01 17:52:00,47.0,7.0,-100.00,WNW,285,18.0,22.0,19,-99.99,,,-99.99,,2013-05-01 23:52:00,
2013-05-01 18:01:00,47.0,7.0,-100.00,NW,320,18.0,24.0,19,-99.99,,,-99.99,,2013-05-02 00:01:00,
2013-05-01 18:11:00,47.0,7.0,-100.00,NW,320,18.0,24.0,19,-99.99,,,-99.99,,2013-05-02 00:11:00,
2013-05-01 18:21:00,47.0,7.0,-100.00,WNW,300,12.0,20.0,19,-99.99,,,-99.99,,2013-05-02 00:21:00,
2013-05-01 18:32:00,46.0,7.0,-100.00,NW,310,14.0,21.0,19,-99.99,,,-99.99,,2013-05-02 00:32:00,
2013-05-01 18:42:00,46.0,7.0,-100.00,NW,310,14.0,21.0,19,-99.99,,,-99.99,,2013-05-02 00:42:00,
2013-05-01 18:52:00,46.0,7.0,-100.00,WNW,295,9.0,16.0,19,-99.99,,,-99.99,,2013-05-02 00:52:00,
2013-05-01 19:01:00,45.0,6.0,-100.00,NW,325,12.0,19.0,19,-99.99,,,-99.99,,2013-05-02 01:01:00,
2013-05-01 19:11:00,45.0,6.0,-100.00,NW,325,12.0,19.0,19,-99.99,,,-99.99,,2013-05-02 01:11:00,
2013-05-01 19:21:00,45.0,6.0,-100.00,NW,325,9.0,18.0,19,-99.99,,,-99.99,,2013-05-02 01:21:00,
2013-05-01 19:32:00,44.0,6.0,-100.00,NNW,340,9.0,14.0,21,-99.99,,,-99.99,,2013-05-02 01:32:00,
2013-05-01 19:42:00,44.0,6.0,-100.00,NNW,340,9.0,14.0,21,-99.99,,,-99.99,,2013-05-02 01:42:00,
2013-05-01 19:52:00,43.0,6.0,-100.00,NNW,340,9.0,15.0,21,-99.99,,,-99.99,,2013-05-02 01:52:00,
2013-05-01 20:02:00,40.0,5.0,-100.00,North,350,7.0,8.0,23,-99.99,,,-99.99,,2013-05-02 02:02:00,
2013-05-01 20:12:00,40.0,5.0,-100.00,North,350,7.0,8.0,23,-99.99,,,-99.99,,2013-05-02 02:12:00,
2013-05-01 20:21:00,39.0,5.0,-100.00,North,355,6.0,9.0,24,-99.99,,,-99.99,,2013-05-02 02:21:00,
2013-05-01 20:32:00,36.0,5.0,-100.00,North,0,4.0,6.0,27,-99.99,,,-99.99,,2013-05-02 02:32:00,
2013-05-01 20:42:00,36.0,5.0,-100.00,North,0,4.0,6.0,27,-99.99,,,-99.99,,2013-05-02 02:42:00,
2013-05-01 20:51:00,36.0,5.0,-100.00,North,0,4.0,6.0,27,-99.99,,,-99.99,,2013-05-02 02:51:00,
2013-05-01 21:01:00,34.0,6.0,-100.00,North,350,4.0,4.0,30,-99.99,,,-99.99,,2013-05-02 03:01:00,
2013-05-01 21:11:00,34.0,6.0,-100.00,North,350,4.0,4.0,30,-99.99,,,-99.99,,2013-05-02 03:11:00,
2013-05-01 21:22:00,33.0,6.0,-100.00,North,0,4.0,5.0,32,-99.99,,,-99.99,,2013-05-02 03:22:00,
2013-05-01 21:33:00,33.0,8.0,-100.00,North,10,7.0,9.0,33,-99.99,,,-99.99,,2013-05-02 03:33:00,
2013-05-01 21:43:00,33.0,8.0,-100.00,North,10,7.0,9.0,33,-99.99,,,-99.99,,2013-05-02 03:43:00,
2013-05-01 21:53:00,33.0,8.0,-100.00,NNE,15,6.0,7.0,34,-99.99,,,-99.99,,2013-05-02 03:53:00,
2013-05-01 22:03:00,32.0,8.0,-100.00,NNE,30,4.0,6.0,35,-99.99,,,-99.99,,2013-05-02 04:03:00,
2013-05-01 22:12:00,32.0,8.0,-100.00,NNE,30,4.0,6.0,35,-99.99,,,-99.99,,2013-05-02 04:12:00,
2013-05-01 22:23:00,31.0,8.0,-100.00,NNE,25,4.0,6.0,36,-99.99,,,-99.99,,2013-05-02 04:23:00,
2013-05-01 22:33:00,30.0,8.0,-100.00,NE,45,0.0,3.0,38,-99.99,,,-99.99,,2013-05-02 04:33:00,
2013-05-01 22:42:00,30.0,8.0,-100.00,NE,45,0.0,3.0,38,-99.99,,,-99.99,,2013-05-02 04:42:00,
2013-05-01 22:52:00,29.0,7.0,-100.00,NNE,25,0.0,2.0,39,-99.99,,,-99.99,,2013-05-02 04:52:00,
2013-05-01 23:02:00,28.0,8.0,-100.00,SE,145,2.0,3.0,42,-99.99,,,-99.99,,2013-05-02 05:02:00,
2013-05-01 23:12:00,28.0,8.0,-100.00,SE,145,2.0,3.0,42,-99.99,,,-99.99,,2013-05-02 05:12:00,
2013-05-01 23:22:00,28.0,8.0,-100.00,South,185,0.0,2.0,43,-99.99,,,-99.99,,2013-05-02 05:22:00,
2013-05-01 23:32:00,27.0,8.0,-100.00,South,185,1.0,2.0,44,-99.99,,,-99.99,,2013-05-02 05:32:00,
2013-05-01 23:42:00,27.0,8.0,-100.00,South,185,1.0,2.0,44,-99.99,,,-99.99,,2013-05-02 05:42:00,
2013-05-01 23:52:00,26.0,8.0,-100.00,South,190,0.0,1.0,46,-99.99,,,-99.99,,2013-05-02 05:52:00,